Date,TemperatureHighF,TemperatureAvgF,TemperatureLowF,DewpointHighF,DewpointAvgF,DewpointLowF,HumidityHigh,HumidityAvg,HumidityLow,PressureMaxIn,PressureMinIn,WindSpeedMaxMPH,WindSpeedAvgMPH,GustSpeedMaxMPH,PrecipitationSumIn
2013-1-1,31.6,28.9,21.6,31.2,27.3,17.2,100,94,83,30.12,30.00,6,0,11,0.00
2013-1-2,25.7,20.5,14.1,17.4,13.9,9.4,87,76,58,30.29,30.10,10,0,13,0.01
2013-1-3,33.1,20.5,6.1,21.5,13.9,3.3,90,76,58,30.28,30.16,18,1,18,0.00
2013-1-4,31.6,28.5,26.3,25.0,21.6,18.8,88,75,64,30.30,30.18,14,1,20,0.00
2013-1-5,35.5,29.8,24.7,26.1,22.7,18.2,82,75,64,30.42,30.17,5,0,13,0.06
2013-1-6,37.9,34.6,31.3,32.6,29.0,25.8,93,80,72,30.24,30.00,10,0,13,0.13
2013-1-7,33.7,29.8,21.6,28.8,25.6,18.9,91,84,72,30.49,30.24,8,0,11,0.02
2013-1-8,43.3,28.2,15.7,31.2,23.0,14.3,96,82,57,30.40,30.30,7,0,11,0.15
2013-1-9,46.7,37.7,25.1,40.9,33.2,23.6,96,84,74,30.50,30.25,8,1,19,0.03
2013-1-10,39.5,35.3,26.9,31.2,29.3,24.6,95,79,69,30.63,30.30,2,0,6,0.00
2013-1-11,53.5,45.8,38.2,53.5,41.6,28.8,100,86,65,30.30,29.94,7,0,7,0.27
2013-1-12,61.6,55.0,49.9,57.3,53.5,49.9,100,95,82,30.06,29.91,6,0,7,0.00
2013-1-13,67.1,61.2,57.0,57.9,55.8,54.2,99,83,69,29.91,29.80,14,2,20,0.09
2013-1-14,57.2,37.1,29.4,56.9,31.7,23.5,99,81,66,30.39,29.86,13,1,29,0.03
2013-1-15,31.6,28.6,23.5,26.1,23.1,20.8,91,80,72,30.43,30.11,5,0,6,0.00
2013-1-16,33.1,31.5,30.1,33.1,30.4,26.1,100,96,82,30.10,29.92,7,0,12,0.08
2013-1-17,34.0,32.0,30.7,30.4,29.0,27.6,94,89,84,30.21,30.05,7,0,17,0.01
2013-1-18,32.4,26.2,17.3,28.6,15.6,7.6,90,64,51,30.53,30.19,19,2,21,0.00
2013-1-19,51.3,42.9,32.4,26.5,21.5,17.4,60,43,30,30.27,29.80,17,3,27,0.04
2013-1-20,46.1,34.2,23.3,32.5,20.1,12.9,68,56,46,30.17,29.74,19,3,28,0.00
2013-1-21,25.3,20.5,11.2,19.8,13.2,2.2,82,73,60,30.15,29.94,17,2,22,0.00
2013-1-22,12.6,8.6,5.6,5.0,0.0,-3.3,82,68,54,30.35,30.11,16,2,25,0.00
2013-1-23,7.2,7.1,7.0,0.5,0.5,0.2,74,74,73,30.35,30.35,0,0,5,0.00
2013-1-24,21.3,15.2,9.7,12.0,6.6,-0.6,90,70,40,30.61,30.12,5,1,20,0.00
2013-1-25,18.0,14.3,9.9,15.8,9.9,3.6,91,82,69,30.59,30.08,2,0,7,0.00
2013-1-26,27.0,22.5,17.8,24.0,18.9,13.5,94,86,71,30.50,30.14,10,1,13,0.02
2013-1-27,30.3,22.2,8.6,21.2,15.4,6.3,91,76,61,30.60,30.35,4,0,7,0.04
2013-1-28,49.8,40.8,29.4,49.8,39.4,-36.7,100,96,3,30.36,30.00,10,1,17,0.07
2013-1-29,64.0,55.6,49.8,58.3,52.0,49.8,100,89,71,30.05,29.75,21,1,21,0.02
2013-1-30,68.1,57.6,49.6,58.3,53.1,45.9,100,86,64,29.76,29.20,14,3,30,1.03
2013-1-31,49.6,38.6,33.7,45.8,35.6,30.6,91,89,83,29.40,29.20,17,5,29,0.04
2013-3-27,42.5,36.4,31.8,32.9,29.7,25.5,99,78,52,30.18,30.09,7,2,22,0.06
2013-3-28,43.3,38.5,34.3,31.7,29.8,28.1,82,71,58,30.29,30.15,6,2,18,0.00
2013-3-29,51.9,42.5,34.9,32.6,27.6,21.5,84,58,31,30.29,30.17,5,1,19,0.00
2013-3-30,53.9,41.3,24.7,31.5,23.2,19.8,86,52,27,30.27,30.01,4,0,11,0.00
2013-3-31,49.4,44.8,38.9,46.8,37.8,23.8,96,78,53,30.00,29.72,3,0,11,0.06
2013-4-1,45.7,39.4,30.4,44.3,27.4,13.1,96,65,32,30.06,29.70,7,2,22,0.04
2013-4-2,38.3,31.5,25.6,20.5,16.3,13.1,78,54,38,30.22,30.06,19,1,21,2.98
2013-4-3,40.1,31.3,24.8,23.1,14.9,9.5,74,52,32,30.45,30.21,13,1,21,0.00
2013-4-4,52.6,35.5,16.5,22.6,15.4,6.2,86,50,18,30.42,29.97,8,0,12,0.00
2013-4-5,53.1,41.0,31.6,32.4,24.1,20.1,69,52,36,30.21,29.93,13,2,19,0.00
2013-4-6,56.9,40.2,22.4,24.5,17.6,11.1,82,46,18,30.32,29.99,11,1,13,0.00
2013-4-7,71.3,61.2,51.6,46.0,38.1,21.2,64,43,30,29.98,29.84,13,3,26,0.00
2013-4-8,73.5,61.1,45.5,52.1,46.0,40.8,85,60,39,30.02,29.86,12,1,24,0.00
2013-4-9,79.4,69.2,56.7,57.0,53.4,46.9,84,58,41,30.07,29.86,12,2,18,0.00
2013-4-10,79.9,70.0,59.0,63.3,58.3,53.4,100,68,50,29.92,29.74,17,2,21,0.42
2013-4-11,73.9,62.7,55.7,62.6,57.7,0.0,100,86,59,29.86,29.56,106,3,106,0.03
2013-4-12,61.3,54.8,43.6,61.3,49.1,34.3,100,82,58,29.85,29.45,20,3,26,0.34
2013-4-13,44.1,41.5,39.2,36.5,34.5,32.6,81,76,65,29.94,29.85,8,1,14,0.00
2013-4-14,61.3,48.0,31.6,38.0,33.0,27.3,88,59,38,30.16,30.00,5,0,13,0.00
2013-4-15,65.8,59.9,54.4,51.3,45.5,36.8,70,59,49,30.07,29.94,9,3,20,0.00
2013-4-16,77.6,63.3,53.3,60.1,54.6,48.3,100,75,53,30.17,30.00,13,2,26,1.03
2013-4-17,67.3,58.0,49.6,56.4,52.6,47.3,100,84,63,30.24,30.06,5,1,8,0.01
2013-4-18,84.5,71.5,59.5,63.4,58.1,55.4,92,66,39,30.08,29.70,16,4,20,0.00
2013-4-19,71.8,58.4,43.3,61.8,48.5,30.4,92,70,58,29.85,29.43,16,4,31,0.25
2013-4-20,46.1,40.8,35.2,32.7,27.8,23.2,85,61,45,30.42,29.85,13,2,22,0.00
2013-4-21,51.7,38.9,25.1,28.8,23.2,18.0,92,57,27,30.62,30.42,7,1,12,0.00
2013-4-22,62.0,51.2,40.9,34.9,27.6,22.2,55,41,26,30.47,30.26,12,2,16,0.00
2013-4-23,70.4,56.5,40.5,40.2,35.5,30.0,75,48,28,30.27,29.93,8,1,10,0.00
2013-4-24,67.6,54.7,39.1,57.9,45.4,35.8,96,73,48,30.17,29.71,16,2,25,0.52
2013-4-25,46.8,37.6,32.8,36.0,33.7,30.8,96,86,57,30.29,30.17,5,0,8,0.00
2013-4-26,59.3,47.3,33.1,40.8,33.4,26.3,99,64,30,30.48,30.35,6,0,9,0.01
2013-4-27,72.5,66.3,50.4,41.2,35.1,29.0,65,32,25,30.36,30.11,12,1,13,0.00
2013-4-28,61.6,55.8,51.4,55.5,48.9,40.8,99,79,47,30.11,29.91,8,1,12,0.23
2013-4-29,62.9,57.1,52.2,58.3,54.0,49.7,97,89,75,30.00,29.91,106,2,106,0.05
2013-4-30,71.8,61.4,51.1,56.7,53.4,50.6,100,77,53,30.16,29.99,7,1,14,0.01
2013-5-1,76.0,63.9,53.6,54.7,49.2,35.4,89,62,33,30.28,30.16,9,1,13,0.00
2013-5-2,76.3,63.6,50.4,46.7,37.5,29.1,66,41,18,30.33,30.17,14,1,14,0.00
2013-5-3,73.9,63.1,48.8,46.3,40.5,34.3,73,45,26,30.23,30.12,18,2,19,0.00
2013-5-4,69.3,60.4,48.6,44.2,40.0,32.0,66,48,27,30.18,30.06,17,2,17,0.00
2013-5-5,72.3,60.8,48.5,43.3,35.3,23.7,77,44,18,30.11,29.98,18,2,18,0.00
2013-5-6,69.6,59.2,47.3,54.4,46.5,36.8,80,63,48,30.06,29.97,12,1,17,0.00
2013-5-7,68.9,60.7,56.3,59.5,55.5,53.2,92,83,58,30.00,29.93,7,1,13,0.15
2013-5-8,73.0,62.7,53.9,56.8,52.5,43.9,100,73,37,29.96,29.86,6,0,11,0.13
2013-5-9,77.2,65.3,54.4,59.7,52.8,45.7,97,68,34,29.96,29.87,12,1,13,0.00
2013-5-10,75.3,63.3,57.2,63.8,58.7,51.7,100,86,59,29.96,29.76,12,2,22,0.74
2013-5-11,60.7,56.1,50.2,60.7,53.9,47.6,100,93,78,29.82,29.72,10,1,10,0.03
2013-5-12,52.2,46.7,37.5,49.8,34.3,27.9,93,64,41,30.06,29.81,14,2,27,0.00
2013-5-13,52.0,43.1,32.7,32.2,27.3,21.2,82,56,32,30.19,30.06,11,2,17,0.00
2013-5-14,62.4,47.9,28.8,42.0,34.5,26.5,95,63,39,30.19,29.88,7,1,16,0.00
2013-5-15,84.7,69.2,50.2,63.3,55.2,40.2,85,63,43,29.88,29.67,22,2,25,0.00
2013-5-16,79.4,70.4,62.3,64.3,56.6,44.2,100,66,29,29.94,29.71,9,0,13,0.25
2013-5-17,79.8,67.8,57.5,63.2,57.9,51.5,100,74,40,30.08,29.93,6,0,10,0.00
2013-5-18,80.9,68.3,53.1,63.6,55.3,47.7,88,65,44,30.10,29.99,7,0,12,0.00
2013-5-19,76.1,68.8,59.8,65.2,62.0,58.7,97,80,65,30.07,29.93,6,0,14,0.00
2013-5-20,84.7,72.6,60.1,69.1,64.7,59.1,98,78,53,29.99,29.86,6,1,10,0.00
2013-5-21,85.5,75.7,65.8,70.4,66.7,62.2,100,76,50,29.91,29.78,13,2,17,0.00
2013-5-22,84.9,72.6,64.2,67.7,63.6,61.5,92,75,49,29.85,29.72,14,3,19,0.00
2013-5-23,75.3,64.7,48.0,67.3,61.2,47.7,100,90,61,29.91,29.72,13,2,19,1.21
2013-5-24,48.0,44.2,40.1,47.6,38.6,33.1,99,82,61,30.31,29.91,11,3,20,0.02
2013-5-25,61.8,47.1,32.4,41.0,34.9,30.9,98,67,36,30.34,30.23,11,1,17,0.00
2013-5-26,66.6,52.4,35.2,41.7,35.8,31.4,89,57,31,30.30,30.21,11,1,16,0.00
2013-5-27,59.9,52.3,37.2,49.5,43.1,34.8,95,72,55,30.26,30.07,4,0,8,0.00
2013-5-28,79.4,66.6,54.2,68.1,60.0,49.1,100,81,59,30.07,29.94,17,2,20,0.17
2013-5-29,85.1,75.9,68.4,65.1,62.1,59.6,79,63,46,30.04,29.94,18,3,22,0.00
2013-5-30,86.5,75.7,60.9,67.9,63.4,57.7,96,68,46,30.14,30.03,7,0,11,0.00
2013-5-31,87.2,77.0,65.6,66.7,63.9,60.8,95,67,43,30.07,29.94,9,2,19,0.00
2013-6-1,84.9,76.0,67.8,68.4,65.6,62.6,88,71,54,29.97,29.82,16,4,20,0.00
2013-6-2,80.1,75.0,67.9,67.1,60.3,56.9,94,61,47,29.84,29.76,13,2,19,0.09
2013-6-3,67.9,61.8,52.9,59.6,52.9,41.0,90,73,55,30.06,29.83,7,1,11,0.00
2013-6-4,72.1,58.4,40.1,50.9,44.8,37.7,97,64,40,30.16,30.06,6,0,10,0.00
2013-6-5,80.3,66.7,47.4,62.2,54.2,44.9,94,66,47,30.12,29.88,7,0,16,0.00
2013-6-6,70.3,65.9,63.5,69.4,64.7,59.7,100,96,69,29.90,29.73,11,1,11,1.02
2013-6-7,65.6,61.3,57.3,63.9,59.8,54.1,100,95,84,29.84,29.73,7,1,10,0.03
2013-6-8,72.0,62.5,56.5,58.5,55.5,53.2,96,79,59,30.09,29.84,6,0,10,0.00
2013-6-9,80.3,69.5,54.8,65.3,60.2,53.4,100,75,52,30.14,29.97,4,0,8,0.00
2013-6-10,74.4,69.7,62.6,70.9,66.7,61.7,100,91,74,29.97,29.74,10,1,12,0.22
2013-6-11,78.1,68.8,61.0,70.1,64.3,60.4,100,87,62,29.86,29.75,11,1,16,0.01
2013-6-12,82.6,72.4,65.8,71.6,65.8,62.8,93,81,59,29.88,29.76,10,0,12,0.00
2013-6-13,73.9,66.3,59.0,72.4,63.9,55.8,100,92,79,29.78,29.49,14,2,22,1.36
2013-6-14,74.4,62.0,54.4,60.8,56.7,53.3,100,84,50,30.05,29.78,8,0,11,0.00
2013-6-15,77.7,65.5,49.6,61.3,53.0,44.8,100,69,33,30.12,29.97,8,0,9,0.00
2013-6-16,74.0,67.8,62.1,71.6,64.2,57.5,100,88,70,29.98,29.86,11,1,19,0.42
2013-6-17,83.4,73.5,66.4,70.4,64.2,57.2,100,76,44,29.94,29.86,6,0,10,0.00
2013-6-18,77.9,68.2,61.8,68.0,62.9,57.2,97,84,65,29.94,29.81,7,0,11,0.01
2013-6-19,75.6,64.8,54.8,57.5,52.2,45.8,92,67,37,30.14,29.94,10,0,11,0.00
2013-6-20,80.5,66.7,48.3,61.4,52.6,46.9,99,65,36,30.21,30.14,5,0,8,0.00
2013-6-21,84.9,70.7,53.9,64.6,58.2,52.8,100,69,37,30.23,30.12,7,0,8,0.00
2013-6-22,87.0,72.3,58.4,70.3,64.1,57.3,99,78,54,30.16,30.03,8,1,11,0.00
2013-6-23,88.2,82.0,68.4,72.3,68.2,65.5,100,65,50,30.12,30.00,9,1,13,0.00
2013-6-24,87.8,78.3,66.1,69.9,66.7,64.5,97,70,47,30.09,29.95,10,1,16,0.00
2013-6-25,88.2,76.3,66.9,71.2,68.0,63.4,100,77,56,30.00,29.84,11,1,18,0.21
2013-6-26,81.2,72.9,65.8,75.4,68.3,65.8,100,87,66,29.93,29.77,6,1,11,1.35
2013-6-27,76.0,70.8,67.9,75.4,68.9,64.9,100,94,80,29.77,29.59,10,0,14,0.56
2013-6-28,77.7,68.8,63.5,71.1,65.9,61.5,100,91,71,29.62,29.45,28,1,28,0.41
2013-6-29,79.4,69.3,60.4,67.3,63.3,60.4,100,83,58,29.65,29.51,13,1,18,0.00
2013-6-30,81.4,69.1,61.0,73.2,65.3,60.4,100,89,60,29.81,29.65,7,0,12,0.29
2013-7-1,77.2,69.9,65.5,73.3,66.3,64.4,100,89,73,29.92,29.78,7,0,7,0.15
2013-7-2,82.8,74.0,65.6,74.4,68.7,65.6,100,85,65,30.02,29.89,5,0,8,0.11
2013-7-3,85.5,76.3,68.4,71.5,69.0,66.9,97,80,57,30.13,30.01,11,1,12,0.00
2013-7-4,85.1,76.1,70.4,72.5,69.4,67.0,96,81,57,30.18,30.07,7,0,11,0.04
2013-7-5,82.8,75.4,68.6,71.7,69.4,67.7,100,83,65,30.14,30.05,12,1,16,0.01
2013-7-6,87.8,78.0,69.8,73.2,70.6,69.2,100,80,55,30.13,29.98,8,0,11,0.00
2013-7-7,78.8,73.1,68.9,70.6,69.1,67.0,100,88,69,30.06,29.97,7,1,10,0.01
2013-7-8,84.1,73.0,63.1,70.6,67.4,62.8,100,84,60,30.09,30.00,9,1,14,0.82
2013-7-9,83.8,73.3,67.8,75.4,70.9,66.9,100,93,75,30.07,29.92,11,1,13,0.57
2013-7-10,86.1,73.3,65.0,78.8,71.4,65.0,100,94,73,29.97,29.76,18,2,18,2.22
2013-7-11,75.6,69.0,63.7,69.4,62.6,57.4,100,82,57,29.97,29.86,6,0,11,0.01
2013-7-12,74.0,66.6,58.9,67.2,61.9,57.0,97,85,66,30.07,29.96,3,0,6,0.01
2013-7-13,82.4,72.1,61.0,69.5,65.4,60.2,99,81,61,30.18,30.06,7,0,7,0.00
2013-7-14,87.8,78.9,70.4,72.1,69.3,67.9,94,74,53,30.24,30.16,10,1,13,0.00
2013-7-15,91.0,79.0,67.3,74.3,70.5,66.7,100,77,51,30.30,30.19,6,0,8,0.00
2013-7-16,88.4,77.6,70.6,76.7,73.1,69.7,100,87,62,30.27,30.20,8,0,18,0.01
2013-7-17,88.8,78.8,70.9,80.9,75.0,70.9,100,89,66,30.26,30.11,6,0,11,0.01
2013-7-18,92.3,81.4,72.1,80.7,74.7,72.1,100,82,55,30.13,29.97,7,0,11,0.00
2013-7-19,91.6,80.1,70.9,75.9,73.0,69.9,97,81,54,29.98,29.82,10,1,21,0.03
2013-7-20,82.6,74.6,69.8,73.3,70.2,67.8,99,87,69,29.89,29.80,12,2,17,0.04
2013-7-21,85.7,74.1,68.8,72.2,69.6,67.9,100,87,58,29.93,29.85,6,0,8,0.02
2013-7-22,78.5,70.5,65.0,74.3,69.7,65.0,100,97,81,29.91,29.73,6,0,10,0.35
2013-7-23,83.0,71.9,64.5,70.3,67.4,59.1,100,88,57,29.75,29.66,8,1,17,0.33
2013-7-24,71.1,64.4,59.2,65.8,58.3,53.8,100,82,58,29.97,29.72,8,1,13,0.01
2013-7-25,75.4,63.3,51.3,58.1,53.4,49.4,97,72,44,30.06,29.97,5,0,10,0.00
2013-7-26,79.9,67.0,52.5,62.4,56.9,52.0,100,74,46,30.07,29.95,7,0,10,0.00
2013-7-27,74.9,66.5,60.2,69.8,64.2,58.5,99,93,78,29.96,29.80,12,1,14,0.25
2013-7-28,74.9,67.3,58.9,65.5,60.0,52.7,100,79,54,30.01,29.80,8,1,12,0.04
2013-7-29,75.4,63.5,52.9,57.4,54.6,51.3,98,75,49,30.17,30.01,8,1,16,0.00
2013-7-30,77.7,65.4,51.7,61.4,56.8,51.2,100,76,50,30.21,30.12,6,0,10,0.00
2013-7-31,77.4,66.8,56.2,68.1,61.9,55.4,100,85,63,30.12,29.91,6,0,8,0.03
2013-8-1,80.5,71.4,64.5,68.7,64.5,59.9,100,81,53,29.91,29.82,7,1,13,0.14
2013-8-2,76.3,68.1,57.8,63.9,59.1,52.4,100,75,44,29.96,29.87,17,1,17,0.00
2013-8-3,77.4,69.1,59.8,67.7,63.4,56.2,100,83,58,29.98,29.89,10,1,14,0.24
2013-8-4,73.9,64.0,53.6,61.1,56.0,53.0,100,77,53,30.07,29.97,10,1,14,0.00
2013-8-5,73.9,63.7,51.1,59.1,54.6,50.3,98,75,47,30.09,29.99,3,0,6,0.00
2013-8-6,80.5,68.1,55.1,61.8,57.3,53.7,100,72,42,30.00,29.93,7,0,8,0.00
2013-8-7,84.1,69.7,60.2,72.2,65.6,58.7,100,88,64,29.95,29.88,11,1,25,0.10
2013-8-8,85.1,74.2,66.3,74.5,70.4,66.3,100,89,68,29.94,29.85,8,1,11,0.04
2013-8-9,77.9,73.4,66.1,74.7,70.8,64.3,100,92,76,29.99,29.84,6,0,10,0.13
2013-8-10,82.0,71.1,60.9,66.7,63.5,60.4,100,79,53,30.06,29.99,8,0,9,0.01
2013-8-11,69.1,65.7,62.6,63.7,59.9,57.8,87,82,77,30.10,30.05,2,0,4,0.00
2013-9-15,69.3,56.5,41.5,56.3,49.3,41.0,100,79,51,30.20,30.05,5,0,13,0.00
2013-9-16,69.6,60.3,52.8,58.8,54.8,50.0,100,83,57,30.30,30.05,5,1,13,0.18
2013-9-17,68.8,55.6,43.3,53.8,47.7,43.0,100,78,46,30.39,30.25,2,0,8,0.00
2013-9-18,73.7,58.9,43.3,56.7,50.2,42.1,98,75,51,30.25,30.09,3,0,12,0.00
2013-9-19,76.1,66.9,61.6,63.6,61.3,56.6,100,83,61,30.11,29.99,3,0,8,0.00
2013-9-20,79.0,69.1,59.9,70.2,66.0,59.0,100,91,73,30.01,29.78,5,1,12,0.00
2013-9-21,69.3,64.0,56.0,68.5,63.7,56.0,100,99,95,29.78,29.65,4,1,12,0.58
2013-9-22,60.9,55.5,52.5,56.0,50.6,45.5,100,85,57,30.00,29.78,8,1,13,0.01
2013-9-23,57.8,52.3,43.1,50.0,46.0,40.7,97,80,62,30.14,30.00,5,0,7,0.00
2013-9-24,67.4,51.7,36.0,49.2,42.4,35.2,100,75,39,30.13,29.96,3,0,7,0.00
2013-9-25,72.8,56.7,41.8,54.8,48.3,41.0,100,77,43,29.97,29.86,5,0,5,0.00
2013-9-26,75.3,59.8,45.1,54.5,50.1,44.8,100,74,39,30.05,29.91,5,0,8,0.00
2013-9-27,73.3,58.6,44.6,56.5,50.5,43.8,97,77,47,30.17,30.05,5,0,7,0.00
2013-9-28,73.3,60.6,47.3,57.2,52.6,46.8,100,77,52,30.24,30.12,6,0,10,0.00
2013-9-29,74.0,61.6,50.5,61.2,54.2,46.8,96,78,59,30.12,29.97,6,0,8,0.00
2013-9-30,70.9,62.1,53.6,62.7,58.4,53.6,100,88,69,30.02,29.95,10,0,11,0.00
2013-10-1,75.8,65.2,56.2,63.1,59.4,55.9,100,83,58,30.05,29.97,11,0,15,0.00
2013-10-2,80.5,68.6,58.1,67.1,61.8,57.0,100,80,57,30.06,29.99,12,1,12,0.00
2013-10-3,79.2,67.9,57.6,68.4,64.0,57.2,100,88,66,30.07,29.97,7,0,11,0.01
2013-10-4,80.9,69.9,62.6,70.3,66.6,62.6,100,90,61,30.06,29.98,13,1,14,0.01
2013-10-5,80.9,69.7,63.7,70.6,66.8,63.7,100,91,66,30.06,29.95,9,0,12,0.01
2013-10-6,83.2,73.6,65.2,68.4,65.1,60.5,100,77,51,29.95,29.68,12,2,16,0.00
2013-10-7,72.8,57.0,50.1,61.8,49.9,44.5,100,78,63,30.12,29.65,16,1,18,0.34
2013-10-8,64.3,53.1,40.6,50.1,45.4,39.8,100,77,52,30.29,30.12,5,0,11,0.00
2013-10-9,67.6,51.5,37.0,48.4,42.5,36.8,100,75,38,30.34,30.22,6,0,11,0.00
2013-10-10,70.4,56.9,45.2,50.2,45.6,41.9,91,68,39,30.22,30.07,3,0,7,0.00
2013-10-11,63.4,57.9,52.8,58.8,54.0,48.7,100,87,74,30.09,30.03,5,0,7,0.04
2013-10-12,72.3,63.4,55.4,63.3,58.5,53.3,95,85,71,30.11,30.04,6,0,10,0.00
2013-10-13,68.9,63.4,57.3,61.5,58.9,55.0,96,86,76,30.23,30.11,14,0,14,0.00
2013-10-14,62.9,59.5,55.3,59.8,57.3,55.3,100,93,81,30.29,30.20,8,0,8,0.01
2013-10-15,69.9,61.9,48.9,62.0,57.4,44.6,100,85,75,30.21,29.95,6,0,8,0.01
2013-10-16,63.1,59.7,56.6,62.3,58.6,55.5,100,96,90,29.95,29.83,12,1,18,0.40
2013-10-17,60.1,53.4,48.8,59.6,51.8,48.8,100,95,82,29.89,29.69,11,0,16,0.47
2013-10-18,59.6,52.0,43.6,49.2,44.4,34.2,100,78,52,30.02,29.88,12,1,18,0.01
2013-10-19,54.4,46.0,39.6,48.7,42.5,38.3,97,88,71,29.97,29.74,11,1,24,0.07
2013-10-20,57.0,46.9,37.6,41.3,39.1,37.1,99,77,51,30.05,29.94,18,1,19,0.00
2013-10-21,64.7,53.7,38.8,45.2,38.8,34.3,91,60,34,30.06,29.81,11,1,18,0.00
2013-10-22,57.3,46.2,38.3,48.0,35.9,25.7,97,69,45,29.98,29.80,14,1,16,0.20
2013-10-23,41.6,39.7,38.8,40.0,36.6,33.6,96,89,83,29.93,29.72,106,8,106,0.08
2013-10-24,45.5,41.1,34.9,35.9,33.0,28.5,89,74,54,30.15,29.88,10,1,106,0.00
2013-10-25,47.7,42.3,33.2,39.8,31.9,21.2,98,68,49,30.33,30.14,8,1,12,0.02
2013-10-26,48.3,42.7,31.8,34.6,29.7,25.1,83,61,42,30.25,29.88,20,2,24,0.00
2013-10-27,51.7,42.4,33.7,37.1,32.9,29.1,94,71,47,30.11,29.97,10,0,13,0.00
2013-10-28,58.3,41.8,27.6,39.7,31.5,26.2,97,71,37,30.29,30.11,5,0,8,0.00
2013-10-29,58.0,45.6,32.2,41.3,37.0,30.7,97,74,49,30.41,30.23,5,0,5,0.00
2013-10-30,63.5,52.5,42.5,54.8,46.4,39.6,96,81,55,30.22,30.04,6,0,7,0.00
2013-10-31,67.6,61.8,56.6,59.9,57.8,54.9,100,87,67,30.05,29.37,19,3,19,0.22
2013-11-1,68.9,58.3,53.3,59.5,49.3,43.7,96,73,53,29.68,29.29,21,4,27,0.25
2013-11-2,54.4,48.0,43.1,45.5,43.3,41.6,98,84,70,29.98,29.65,10,1,13,0.05
2013-11-3,46.8,40.5,31.2,42.3,33.7,25.1,97,78,55,30.49,29.98,11,1,13,0.00
2013-11-4,44.9,36.4,25.8,27.8,24.2,22.0,89,63,41,30.57,30.45,6,0,8,0.00
2013-11-5,58.0,47.3,38.3,36.0,32.0,27.8,69,56,40,30.51,30.32,5,0,8,0.00
2013-11-6,70.8,57.1,40.3,57.6,46.4,31.0,98,68,50,30.32,29.89,106,3,106,0.13
2013-11-7,57.3,45.3,39.3,57.3,39.9,26.9,100,82,58,30.14,29.83,106,16,106,0.72
2013-11-8,43.3,37.6,27.6,31.1,26.1,-20.7,87,66,8,30.32,30.08,106,26,106,0.00
2013-11-9,56.5,42.4,26.1,32.6,26.4,23.3,94,59,29,30.31,29.95,14,2,22,0.00
2013-11-10,52.6,44.2,36.8,38.2,33.1,28.7,78,65,48,30.29,29.95,16,2,26,0.00
2013-11-11,48.2,40.7,31.6,37.0,31.0,24.9,94,70,48,30.29,30.03,14,2,21,0.04
2013-11-12,33.4,29.2,26.4,31.8,26.3,21.8,100,89,66,30.52,30.13,13,1,16,0.15
2013-11-13,33.5,27.8,23.6,24.0,22.7,20.9,92,81,65,30.53,30.39,6,0,14,0.01
2013-11-14,47.4,36.3,26.3,24.5,21.8,19.9,80,58,35,30.39,30.18,13,2,18,0.00
2013-11-15,55.0,45.5,33.2,36.8,26.2,20.9,63,48,27,30.22,30.12,12,1,21,0.00
2013-11-16,59.6,50.9,36.2,50.3,43.8,33.3,94,77,59,30.24,30.00,7,1,11,0.00
2013-11-17,60.9,56.5,52.9,60.9,54.5,45.5,100,93,63,30.00,29.49,14,3,22,0.88
2013-11-18,58.1,47.4,37.9,43.3,35.5,27.1,81,64,49,30.07,29.57,19,4,26,0.00
2013-11-19,37.9,33.9,25.3,27.9,24.9,20.9,84,69,61,30.45,30.07,10,1,19,0.00
2013-11-20,47.1,34.5,22.5,24.3,18.6,12.6,94,59,25,30.51,30.37,8,1,14,0.00
2013-11-21,53.3,44.2,33.5,39.5,30.2,18.6,71,58,49,30.44,30.22,3,0,8,0.00
2013-11-22,52.8,48.3,35.8,52.8,46.5,33.7,100,94,69,30.27,30.04,13,1,19,0.19
2013-11-23,36.3,30.2,19.1,33.4,24.6,13.6,93,80,51,30.39,30.17,27,3,27,0.01
2013-11-24,24.1,18.4,14.4,14.3,11.5,7.3,88,75,52,30.60,30.39,135,5,135,0.00
2013-11-25,36.3,25.1,14.4,27.1,11.8,7.3,79,58,35,30.54,30.25,135,49,135,0.00
2013-11-26,33.2,32.1,30.9,33.1,31.8,27.1,100,99,79,30.26,29.76,7,0,8,0.01
2013-11-27,32.1,27.4,21.9,31.9,26.4,18.6,100,96,86,30.17,29.75,21,2,21,0.00
2013-11-28,27.9,23.9,17.5,22.5,18.2,12.9,89,79,64,30.46,30.17,5,0,12,0.00
2013-11-29,33.2,27.8,22.4,23.5,21.7,19.4,92,78,60,30.69,30.46,2,0,4,0.11
2013-11-30,38.2,29.2,22.2,26.5,22.6,19.2,91,77,58,30.66,30.25,8,0,9,0.03
2013-12-1,42.8,36.6,25.1,32.4,28.8,-11.8,90,74,11,30.25,29.97,106,6,106,0.09
2013-12-2,46.7,40.1,37.0,37.1,34.1,31.6,92,79,69,29.97,29.82,135,29,135,0.00
2013-12-3,52.6,42.0,35.5,43.4,38.3,34.1,100,87,68,29.93,29.86,5,0,7,0.02
2013-12-4,57.6,47.7,36.0,48.6,43.1,35.5,100,85,69,30.00,29.85,6,0,8,0.00
2013-12-5,59.9,55.1,38.3,59.5,51.8,-28.1,100,90,4,30.06,29.82,106,13,106,0.62
2013-12-6,38.3,32.3,27.5,37.6,31.4,-38.4,100,98,3,30.33,30.04,106,4,106,0.27
2013-12-7,29.0,25.3,16.2,27.6,20.6,11.4,100,83,65,30.64,30.31,10,1,13,0.05
2013-12-8,30.3,22.5,14.3,30.0,19.4,9.6,99,88,78,30.64,30.10,5,0,11,0.00
2013-12-9,37.5,33.3,29.0,37.5,27.6,-45.2,100,88,2,30.16,29.98,106,4,106,0.06
2013-12-10,29.0,25.2,21.1,23.9,7.1,-41.8,93,59,4,30.31,30.08,12,1,18,0.01
2013-12-11,29.4,23.3,17.2,22.0,4.9,-28.0,84,54,11,30.41,30.27,18,1,18,0.00
2013-12-12,21.6,17.8,10.4,14.8,7.4,-11.4,81,64,23,30.53,30.30,106,12,106,0.00
2013-12-13,34.1,26.5,20.2,19.4,13.1,5.8,63,57,52,30.30,30.17,106,60,106,0.00
2013-12-14,29.5,29.5,29.5,18.5,18.5,18.5,63,63,63,30.26,29.60,106,106,106,0.00
2013-12-15,29.5,29.0,27.8,25.3,21.6,18.5,88,74,63,29.98,29.58,106,102,106,0.00
2013-12-16,28.4,25.4,19.5,25.3,18.9,13.1,88,77,66,30.22,29.98,106,82,106,0.00
2013-12-17,32.5,28.2,24.1,29.9,20.6,14.7,91,73,67,30.07,29.87,106,78,106,0.04
2013-12-18,30.9,29.5,27.8,24.2,22.6,20.4,76,75,73,30.19,30.02,106,93,106,0.00
2013-12-19,50.4,40.8,27.9,36.5,28.7,20.7,74,63,49,30.10,29.99,106,70,106,0.09
2013-12-20,49.4,49.4,49.4,36.5,36.5,36.5,61,61,61,30.01,29.85,106,106,106,0.00
2013-12-21,60.9,52.1,49.4,60.3,42.9,36.5,98,72,61,29.85,29.59,106,94,106,0.00
2013-12-22,69.8,60.0,57.5,61.5,54.6,-15.1,98,83,4,29.92,29.48,106,23,106,0.30
2013-12-23,57.5,38.7,29.8,51.0,34.2,-16.1,97,85,6,30.32,29.92,106,1,106,0.11
2013-12-24,30.0,21.7,11.6,23.3,14.4,6.1,91,74,59,30.59,30.26,17,2,20,0.00
2013-12-25,26.3,16.1,8.4,24.1,10.8,4.6,92,80,62,30.59,30.26,6,0,10,0.00
2013-12-26,35.2,30.4,26.1,29.0,25.3,19.7,98,83,54,30.27,30.16,10,1,19,0.10
2013-12-27,40.8,37.5,34.7,28.9,26.6,23.0,73,65,58,30.33,30.27,7,1,14,0.03
2013-12-28,49.6,41.9,35.5,31.9,27.9,22.9,64,57,49,30.27,30.05,10,1,17,0.01
2013-12-29,42.8,40.6,38.3,41.9,35.8,24.8,100,85,49,30.05,29.68,6,0,11,0.47
2013-12-30,39.2,25.2,20.2,38.4,21.7,14.1,97,86,69,30.23,29.84,12,1,21,0.00
2013-12-31,24.2,22.9,21.3,21.7,17.7,13.2,90,80,65,30.35,30.11,19,1,25,0.00
2014-1-1,33.1,27.5,23.3,26.0,22.4,18.8,89,81,73,30.36,30.09,3,0,6,0.00
2014-1-2,29.0,23.2,11.1,27.5,21.0,8.6,96,91,84,30.09,29.73,106,2,106,0.01